Weather History for KFHR - December, 2011

Change the Weather History Date:

Friday, December 23, 2011

  Actual Average Record
Temperature  
Mean Temperature 42 °F -  
Max Temperature 46 °F 43 °F 52 °F (2003)
Min Temperature 39 °F 34 °F 16 °F (2008)
Degree Days  
Heating Degree Days 22    
Moisture  
Dew Point 38 °F    
Average Humidity 79    
Maximum Humidity 89    
Minimum Humidity 71    
Precipitation  
Precipitation 0.06 in - - ()
Sea Level Pressure  
Sea Level Pressure 30.49 in    
Wind  
Wind Speed 6 mph (East)    
Max Wind Speed 12 mph    
Max Gust Speed 18 mph    
Visibility 10 miles    
Events Rain    
Averages and records for this station are not official NWS values.
T = Trace of Precipitation, MM = Missing Value Source: NWS Daily Summary

Daily Weather History Graph

Daily Weather History Graph

Search for Another Location

Airport or City:

Trip Planner

Search our weather history database for the weather conditions in past years. The results will help you decide how hot, cold, wet, or windy it might be!

Date:

Astronomy

Dec. 23, 2011 Rise Set
Actual Time 8:02 AM PST 4:20 PM PST
Civil Twilight 7:25 AM PST 4:57 PM PST
Nautical Twilight 6:45 AM PST 5:37 PM PST
Astronomical Twilight 6:06 AM PST 6:15 PM PST
Moon 6:58 AM PST (12/23) 3:33 PM PST (12/23)
Length of Visible Light 9h 31m
Length of Day
8h 17m
Waning Crescent, 1% of the Moon is Illuminated
Dec 23
Waning Crescent
Dec 24
New
Dec 31
First Quarter
Jan 8
Full
Jan 16
Last Quarter

Hourly Weather History & Observations

Time (PST) Temp. Windchill Dew Point Humidity Pressure Visibility Wind Dir Wind Speed Gust Speed Precip Events Conditions
12:53 AM 39.0 °F 35.7 °F 33.1 °F 79% 30.35 in 10.0 mi NNE 4.6 mph - 0.03 in Rain Light Rain
1:53 AM 39.9 °F 37.8 °F 34.0 °F 79% 30.38 in 10.0 mi NE 3.5 mph - 0.01 in Rain Light Rain
2:53 AM 39.9 °F - 36.0 °F 86% 30.42 in 9.0 mi Calm Calm - 0.01 in Rain Light Rain
3:53 AM 39.9 °F 37.8 °F 34.0 °F 79% 30.42 in 10.0 mi ENE 3.5 mph - 0.00 in Rain Light Rain
4:53 AM 42.1 °F 38.4 °F 35.1 °F 76% 30.44 in 10.0 mi East 5.8 mph - 0.01 in   Overcast
5:53 AM 42.1 °F 38.4 °F 34.0 °F 73% 30.45 in 10.0 mi ESE 5.8 mph - N/A   Mostly Cloudy
6:53 AM 43.0 °F 37.2 °F 34.0 °F 71% 30.45 in 10.0 mi SE 10.4 mph - N/A   Overcast
7:53 AM 43.0 °F 37.7 °F 36.0 °F 76% 30.47 in 10.0 mi ESE 9.2 mph - 0.00 in Rain Light Rain
8:53 AM 43.0 °F 38.8 °F 36.0 °F 76% 30.50 in 10.0 mi SSE 6.9 mph - 0.00 in   Overcast
9:53 AM 45.0 °F 40.1 °F 37.0 °F 74% 30.52 in 10.0 mi SE 9.2 mph 18.4 mph N/A   Overcast
10:25 AM 44.6 °F 38.8 °F 37.4 °F 76% 30.54 in 10.0 mi SE 11.5 mph - N/A   Overcast
10:51 AM 44.6 °F 39.2 °F 37.4 °F 76% 30.55 in 10.0 mi ESE 10.4 mph - 0.00 in Rain Light Rain
10:53 AM 44.1 °F 38.6 °F 37.9 °F 79% 30.55 in 10.0 mi ESE 10.4 mph - 0.00 in Rain Light Rain
11:53 AM 45.0 °F 40.1 °F 37.9 °F 76% 30.53 in 10.0 mi ESE 9.2 mph - 0.00 in   Overcast
12:48 PM 46.4 °F 41.9 °F 39.2 °F 76% 30.52 in 10.0 mi East 9.2 mph - 0.00 in   Mostly Cloudy
12:53 PM 46.0 °F 41.0 °F 39.0 °F 76% 30.52 in 10.0 mi ESE 10.4 mph - 0.00 in   Mostly Cloudy
1:53 PM 46.0 °F 41.9 °F 39.0 °F 76% 30.53 in 10.0 mi SE 8.1 mph - N/A   Overcast
2:53 PM 46.0 °F 44.8 °F 39.9 °F 79% 30.53 in 10.0 mi NE 3.5 mph - N/A   Overcast
3:53 PM 46.0 °F 43.1 °F 39.9 °F 79% 30.52 in 10.0 mi ENE 5.8 mph - N/A   Mostly Cloudy
4:02 PM 46.4 °F 44.3 °F 39.2 °F 76% 30.52 in 10.0 mi ENE 4.6 mph - N/A   Scattered Clouds
4:53 PM 46.0 °F 43.9 °F 39.0 °F 76% 30.52 in 10.0 mi ENE 4.6 mph - N/A   Clear
5:53 PM 46.0 °F 43.1 °F 39.9 °F 79% 30.51 in 10.0 mi East 5.8 mph - N/A   Clear
6:53 PM 45.0 °F - 39.9 °F 82% 30.51 in 10.0 mi Calm Calm - N/A   Mostly Cloudy
7:53 PM 43.0 °F - 39.9 °F 89% 30.51 in 10.0 mi Calm Calm - N/A   Scattered Clouds
8:09 PM 42.8 °F - 39.2 °F 87% 30.51 in 10.0 mi Calm Calm - N/A   Mostly Cloudy
8:53 PM 46.0 °F 43.1 °F 39.9 °F 79% 30.45 in 10.0 mi East 5.8 mph - N/A   Overcast
9:53 PM 45.0 °F - 41.0 °F 86% 30.47 in 10.0 mi Calm Calm - N/A   Overcast
11:53 PM 46.9 °F - 42.1 °F 83% 30.45 in 10.0 mi ENE 3.5 mph - N/A   Overcast